YT1XN Weather Reports


Display with metric or nautical units.
time (UTC)temp
F
wind
direction
speed
MPH
gust
MPH
rain 1hr
in
rain 24hr
in
rain mn
in
humidity
%
barometer
mb
20260506084000 76 202 3.0 6.0 0.00 0.00 0.00 50 1015.0
20260506083503 75 225 1.0 6.0 0.00 0.00 0.00 50 1015.0
20260506083003 75 225 1.0 3.0 0.00 0.00 0.00 51 1015.0
20260506082503 75 212 1.0 4.0 0.00 0.00 0.00 50 1015.0
20260506082000 74 203 1.0 4.0 0.00 0.00 0.00 53 1015.0
20260506081503 74 297 1.0 4.0 0.00 0.00 0.00 51 1015.0
20260506081003 73 253 1.0 3.0 0.00 0.00 0.00 51 1015.0
20260506080503 73 148 1.0 5.0 0.00 0.00 0.00 49 1014.9
20260506073503 70 229 1.0 3.0 0.00 0.00 0.00 58 1015.2
20260506073002 70 323 2.0 4.0 0.00 0.00 0.00 61 1015.2
20260506072503 69 221 2.0 4.0 0.00 0.00 0.00 61 1015.2
20260506072003 68 251 1.0 4.0 0.00 0.00 0.00 61 1015.3
20260506071503 68 192 1.0 3.0 0.00 0.00 0.00 60 1015.3
20260506071003 68 161 1.0 3.0 0.00 0.00 0.00 61 1015.3
20260506070503 67 253 1.0 4.0 0.00 0.00 0.00 64 1015.2
20260506062503 65 154 3.0 7.0 0.00 0.00 0.00 67 1015.4
20260506062003 64 150 2.0 7.0 0.00 0.00 0.00 67 1015.4
20260506061500 64 110 1.0 3.0 0.00 0.00 0.00 69 1015.4
20260506061001 63 238 1.0 3.0 0.00 0.00 0.00 69 1015.6
20260506060503 63 192 1.0 4.0 0.00 0.00 0.00 70 1015.4
20260506050503 61 85 3.0 5.0 0.00 0.00 0.00 69 1015.0
20260506045003 61 86 4.0 5.0 0.00 0.00 0.00 68 1015.2
20260506044503 60 82 4.0 6.0 0.00 0.00 0.00 68 1015.1
20260506044003 60 80 3.0 5.0 0.00 0.00 0.00 69 1015.2
20260506043503 60 77 3.0 4.0 0.00 0.00 0.00 68 1015.2
20260506042503 60 76 1.0 3.0 0.00 0.00 0.00 67 1014.9
20260506042000 60 76 2.0 3.0 0.00 0.00 0.00 67 1014.9
20260506041500 60 76 2.0 3.0 0.00 0.00 0.00 68 1014.9
20260506041003 60 76 2.0 4.0 0.00 0.00 0.00 68 1014.9
20260506040500 59 80 2.0 4.0 0.00 0.00 0.00 68 1015.0
20260506040004 59 64 1.0 4.0 0.00 0.00 0.00 69 1015.0
20260506035503 59 49 2.0 4.0 0.00 0.00 0.00 69 1015.0
20260506034503 59 88 2.0 4.0 0.00 0.00 0.00 68 1015.0
20260506034002 59 88 2.0 4.0 0.00 0.00 0.00 67 1015.0
20260506032503 59 74 3.0 5.0 0.00 0.00 0.00 68 1015.0
20260506031001 58 81 3.0 4.0 0.00 0.00 0.00 68 1015.0
20260506030500 58 77 3.0 4.0 0.00 0.00 0.00 68 1014.9
20260506030003 58 76 2.0 4.0 0.00 0.00 0.00 68 1015.0
20260506025500 58 75 2.0 3.0 0.00 0.00 0.00 68 1015.0
20260506024458 58 69 2.0 3.0 0.00 0.00 0.00 67 1014.8
20260506024000 58 80 2.0 3.0 0.00 0.00 0.00 67 1014.8
20260506023502 58 80 2.0 3.0 0.00 0.00 0.00 68 1014.9
20260506023000 58 80 2.0 3.0 0.00 0.00 0.00 68 1014.9
20260506022500 58 80 1.0 3.0 0.00 0.00 0.00 68 1014.8
20260506022000 58 80 1.0 3.0 0.00 0.00 0.00 69 1014.8
20260506021500 58 80 2.0 3.0 0.00 0.00 0.00 68 1014.7
20260506021000 58 80 2.0 3.0 0.00 0.00 0.00 68 1014.8
20260506020503 58 85 2.0 3.0 0.00 0.00 0.00 67 1014.8
20260506015957 58 98 2.0 3.0 0.00 0.00 0.00 67 1014.8
20260506015000 58 132 0.0 2.0 0.00 0.00 0.00 67 1014.8
20260506014459 58 132 0.0 2.0 0.00 0.00 0.00 68 1014.6
20260506014002 58 132 0.0 2.0 0.00 0.00 0.00 68 1014.7
20260506013500 58 132 0.0 1.0 0.00 0.00 0.00 68 1014.7
20260506013000 58 132 1.0 2.0 0.00 0.00 0.00 68 1014.6
20260506012503 58 132 1.0 2.0 0.00 0.00 0.00 68 1014.6
20260506012000 58 132 0.0 2.0 0.00 0.00 0.00 69 1014.5
20260506011502 58 132 1.0 2.0 0.00 0.00 0.00 67 1014.4
20260506011002 59 132 1.0 2.0 0.00 0.00 0.00 66 1014.3
20260506010500 59 149 0.0 2.0 0.00 0.00 0.00 66 1014.4
20260506005959 59 235 1.0 3.0 0.00 0.00 0.00 66 1014.4
20260506005000 59 227 2.0 3.0 0.00 0.00 0.00 66 1014.4
20260506004500 59 225 1.0 3.0 0.00 0.00 0.00 66 1014.2
20260506004000 59 229 1.0 3.0 0.00 0.00 0.00 67 1014.3
20260506003500 59 217 2.0 3.0 0.00 0.00 0.00 67 1014.3
20260506002959 59 164 2.0 5.0 0.00 0.00 0.00 66 1014.3
20260506002459 60 169 3.0 5.0 0.00 0.00 0.00 67 1014.4
20260506001959 60 139 2.0 4.0 0.00 0.00 0.00 67 1014.4
20260506001500 60 138 1.0 3.0 0.00 0.00 0.00 68 1014.3
20260506000959 60 148 1.0 3.0 0.00 0.00 0.00 67 1014.4
20260506000459 60 135 1.0 2.0 0.00 0.00 0.00 67 1014.3
20260506000003 60 148 0.0 2.0 0.00 0.00 0.00 67 1014.3
20260505235500 60 199 0.0 0.0 0.00 0.00 0.00 66 1014.3
20260505235003 60 198 0.0 1.0 0.00 0.00 0.00 66 1014.2
20260505234500 61 198 0.0 1.0 0.00 0.00 0.00 66 1014.3
20260505233503 61 244 0.0 0.0 0.00 0.00 0.00 66 1014.2
20260505232959 61 244 0.0 0.0 0.00 0.00 0.00 66 1014.3
20260505232500 61 244 0.0 0.0 0.00 0.00 0.00 66 1014.2
20260505232000 61 244 0.0 1.0 0.00 0.00 0.00 66 1014.3
20260505231500 61 244 0.0 2.0 0.00 0.00 0.00 66 1014.2
20260505231000 61 257 1.0 2.0 0.00 0.00 0.00 65 1014.2
20260505230503 61 257 1.0 2.0 0.00 0.00 0.00 65 1014.3
20260505230003 61 257 1.0 2.0 0.00 0.00 0.00 64 1014.4
20260505225503 62 257 1.0 2.0 0.00 0.00 0.00 64 1014.3
20260505225000 62 355 2.0 5.0 0.00 0.00 0.00 64 1014.4
20260505224003 62 27 3.0 6.0 0.00 0.00 0.00 64 1014.3
20260505223002 62 5 2.0 5.0 0.00 0.00 0.00 63 1014.5
20260505222500 63 348 2.0 4.0 0.00 0.00 0.00 63 1014.5
20260505222003 63 11 3.0 5.0 0.00 0.00 0.00 62 1014.5
20260505221500 63 350 4.0 10.0 0.00 0.00 0.00 63 1014.5
20260505221002 62 338 4.0 10.0 0.00 0.00 0.00 63 1014.5
20260505220503 62 17 4.0 8.0 0.00 0.00 0.00 63 1014.5
20260505220008 62 355 3.0 6.0 0.00 0.00 0.00 63 1014.5
20260505215503 62 22 2.0 5.0 0.00 0.00 0.00 63 1014.5
20260505215003 62 350 1.0 3.0 0.00 0.00 0.00 62 1014.6
20260505214503 62 355 1.0 3.0 0.00 0.00 0.00 62 1014.6
20260505214003 62 19 0.0 2.0 0.00 0.00 0.00 61 1014.6
20260505213003 63 313 1.0 2.0 0.00 0.00 0.00 58 1014.6
20260505212502 63 293 2.0 6.0 0.00 0.00 0.00 57 1014.7
20260505212003 64 280 2.0 7.0 0.00 0.00 0.00 56 1014.6
20260505210503 65 296 2.0 5.0 0.00 0.00 0.00 54 1014.5
20260505210003 65 282 3.0 9.0 0.00 0.00 0.00 53 1014.5
20260505205503 65 284 4.0 9.0 0.00 0.00 0.00 52 1014.5
20260505205000 66 277 4.0 9.0 0.00 0.00 0.00 52 1014.4
20260505204503 66 289 3.0 8.0 0.00 0.00 0.00 51 1014.4
20260505204003 66 301 3.0 10.0 0.00 0.00 0.00 50 1014.3
20260505203003 66 148 3.0 9.0 0.00 0.00 0.00 49 1014.0
20260505202503 66 292 2.0 8.0 0.00 0.00 0.00 49 1014.0
20260505202003 66 277 1.0 9.0 0.00 0.00 0.00 48 1013.9
20260505201503 66 347 1.0 9.0 0.00 0.00 0.00 48 1013.9
20260505200503 66 276 1.0 7.0 0.00 0.00 0.00 49 1013.6
20260505200004 66 276 1.0 7.0 0.00 0.00 0.00 50 1013.6
20260505195503 66 306 1.0 5.0 0.00 0.00 0.00 51 1013.4
20260505195003 66 220 1.0 5.0 0.00 0.00 0.00 52 1013.5
20260505194503 66 306 3.0 9.0 0.00 0.00 0.00 54 1013.4
20260505193503 68 265 3.0 7.0 0.00 0.00 0.00 50 1013.5
20260505193003 69 294 2.0 5.0 0.00 0.00 0.00 45 1013.2
20260505192503 69 236 1.0 3.0 0.00 0.00 0.00 44 1013.1
20260505192003 70 249 1.0 2.0 0.00 0.00 0.00 43 1012.9
20260505191504 71 14 0.0 2.0 0.00 0.00 0.00 43 1012.8
20260505190503 72 14 1.0 3.0 0.00 0.00 0.00 38 1012.6
20260505185500 72 21 1.0 4.0 0.00 0.00 0.00 39 1012.5
20260505185002 72 23 0.0 2.0 0.00 0.00 0.00 39 1012.5
20260505184503 71 66 0.0 1.0 0.00 0.00 0.00 39 1012.4
20260505184003 71 66 0.0 1.0 0.00 0.00 0.00 40 1012.4
20260505183503 71 66 1.0 3.0 0.00 0.00 0.00 40 1012.4
20260505183003 72 66 2.0 4.0 0.00 0.00 0.00 41 1012.3
20260505182503 72 64 3.0 4.0 0.00 0.00 0.00 41 1012.3
20260505182003 72 67 4.0 5.0 0.00 0.00 0.00 41 1012.3
20260505181503 72 66 4.0 5.0 0.00 0.00 0.00 41 1012.2
20260505180503 72 66 3.0 4.0 0.00 0.00 0.00 41 1012.1
20260505180004 73 64 3.0 4.0 0.00 0.00 0.00 41 1012.2
20260505175503 73 65 3.0 4.0 0.00 0.00 0.00 41 1012.2
20260505175003 73 67 3.0 4.0 0.00 0.00 0.00 41 1012.1
20260505174503 73 67 3.0 4.0 0.00 0.00 0.00 41 1012.1
20260505174003 73 66 3.0 5.0 0.00 0.00 0.00 41 1012.0
20260505173503 73 71 4.0 5.0 0.00 0.00 0.00 41 1012.0
20260505173004 73 69 4.0 5.0 0.00 0.00 0.00 41 1011.9
20260505172503 74 70 4.0 5.0 0.00 0.00 0.00 42 1011.9
20260505172003 74 78 4.0 5.0 0.00 0.00 0.00 42 1011.9
20260505171502 74 78 4.0 6.0 0.00 0.00 0.00 42 1011.9
20260505170503 74 74 4.0 7.0 0.00 0.00 0.00 42 1011.8
20260505170000 74 81 4.0 7.0 0.00 0.00 0.00 42 1011.7
20260505165003 75 84 4.0 7.0 0.00 0.00 0.00 41 1011.8
20260505164504 75 78 4.0 6.0 0.00 0.00 0.00 41 1011.9
20260505164003 75 75 4.0 5.0 0.00 0.00 0.00 40 1011.9
20260505163503 75 84 3.0 5.0 0.00 0.00 0.00 40 1012.0
20260505163003 76 72 2.0 4.0 0.00 0.00 0.00 40 1012.1
20260505162503 76 68 2.0 3.0 0.00 0.00 0.00 40 1012.1
20260505162004 76 74 2.0 3.0 0.00 0.00 0.00 40 1012.1
20260505161003 77 83 1.0 3.0 0.00 0.00 0.00 37 1012.2
20260505160504 78 83 2.0 4.0 0.00 0.00 0.00 37 1012.1
20260505152503 79 148 2.0 5.0 0.00 0.00 0.00 35 1012.5
20260505152003 79 167 4.0 8.0 0.00 0.00 0.00 35 1012.5
20260505151503 80 94 5.0 8.0 0.00 0.00 0.00 34 1012.6
20260505151003 80 90 4.0 8.0 0.00 0.00 0.00 34 1012.5
20260505150503 80 91 2.0 8.0 0.00 0.00 0.00 35 1012.6
20260505125002 81 126 2.0 4.0 0.00 0.00 0.00 34 1014.3
20260505124502 81 90 2.0 4.0 0.00 0.00 0.00 35 1014.4
20260505124003 82 132 2.0 4.0 0.00 0.00 0.00 33 1014.3
20260505123503 82 255 2.0 4.0 0.00 0.00 0.00 36 1014.5
20260505123003 82 286 2.0 4.0 0.00 0.00 0.00 36 1014.5
20260505122503 82 304 2.0 7.0 0.00 0.00 0.00 38 1014.7
20260505122003 82 260 1.0 5.0 0.00 0.00 0.00 37 1014.8
20260505121003 83 238 2.0 4.0 0.00 0.00 0.00 31 1014.8
20260505120500 83 288 1.0 4.0 0.00 0.00 0.00 35 1015.0
20260505115503 83 237 3.0 7.0 0.00 0.00 0.00 35 1015.0
20260505115003 82 211 2.0 5.0 0.00 0.00 0.00 36 1015.1
20260505114501 81 232 2.0 5.0 0.00 0.00 0.00 36 1015.0
20260505114003 81 232 2.0 5.0 0.00 0.00 0.00 37 1015.1
20260505113503 81 76 1.0 3.0 0.00 0.00 0.00 33 1015.2
20260505113003 81 123 1.0 4.0 0.00 0.00 0.00 33 1015.2
20260505112003 81 65 2.0 7.0 0.00 0.00 0.00 34 1015.2
20260505111501 81 161 2.0 6.0 0.00 0.00 0.00 35 1015.3
20260505111003 81 340 3.0 7.0 0.00 0.00 0.00 34 1015.3
20260505110503 81 245 3.0 7.0 0.00 0.00 0.00 37 1015.3
20260505102003 78 208 2.0 6.0 0.00 0.00 0.00 41 1015.6
20260505101503 78 194 2.0 4.0 0.00 0.00 0.00 42 1015.6
20260505101004 78 121 2.0 6.0 0.00 0.00 0.00 42 1015.6
20260505100503 78 236 2.0 5.0 0.00 0.00 0.00 45 1015.7
20260505100005 77 215 2.0 7.0 0.00 0.00 0.00 46 1015.7
20260505095503 77 329 3.0 6.0 0.00 0.00 0.00 43 1015.9
20260505095003 77 270 2.0 8.0 0.00 0.00 0.00 46 1015.9
20260505094503 76 273 2.0 6.0 0.00 0.00 0.00 49 1016.0
20260505094003 76 167 3.0 5.0 0.00 0.00 0.00 45 1016.0
20260505093502 76 267 3.0 5.0 0.00 0.00 0.00 46 1016.2
20260505093004 76 241 3.0 5.0 0.00 0.00 0.00 47 1016.1
20260505092505 76 252 3.0 8.0 0.00 0.00 0.00 48 1016.3
20260505092003 75 226 3.0 7.0 0.00 0.00 0.00 48 1016.3
20260505091503 75 256 3.0 7.0 0.00 0.00 0.00 46 1016.3
20260505091003 75 236 3.0 8.0 0.00 0.00 0.00 47 1016.4
20260505090504 75 234 2.0 8.0 0.00 0.00 0.00 49 1016.4
20260505090003 74 290 3.0 7.0 0.00 0.00 0.00 46 1016.3
20260505085503 74 229 2.0 5.0 0.00 0.00 0.00 48 1016.4
20260505085003 74 242 1.0 4.0 0.00 0.00 0.00 48 1016.3
20260505084502 73 266 1.0 3.0 0.00 0.00 0.00 48 1016.4